Home   Weather   Clifton   Past weeks
Flag for USA

Past Weather in Clifton, Colorado, USA — Yesterday and Last 2 Weeks

Now
66 °F

Clear.


Feels Like: 66 °F
Forecast: 99 / 64 °F
Wind: 10 mph from Southeast

Location: Walker Field

Current Time: Jul 21, 2019 at 5:39:49 am

Latest Report: Jul 21, 2019 at 4:53 am


Visibility: 10 mi

Pressure: 29.81 "Hg (25.19 "Hg at 1440m altitude)

Humidity: 42%

Dew Point: 42 °F

Location of CliftonLocation

Past Weather in Clifton — Graph

°F

Clifton Temperature Yesterday

Maximum temperature yesterday: 99 °F (at 3:53 pm)
Minimum temperature yesterday: 68 °F (at 7:53 am)
Average temperature yesterday: 81 °F

High & Low Weather Summary for the Past Weeks

 TemperatureHumidityPressure
High99 °F (Jul 12, 4:53 pm)70% (Jul 8, 7:53 am)30.10 "Hg (Jul 8, 7:53 am)
Low54 °F (Jul 9, 2:53 am)6% (Jul 18, 4:53 pm)29.60 "Hg (Jul 16, 6:53 pm)
Average81 °F25%29.83 "Hg
* Reported Jul 6 2:53 am — Jul 21 2:53 am, Clifton. Weather by CustomWeather, © 2019

Note: Actual official high and low records may vary slightly from our data, if they occured in-between our weather recording intervals... More about our weather records

Advertising

Clifton Weather History for the Previous 24 Hours

Scroll right to see more
 ConditionsComfort  
Time TempWeatherWind HumidityBarometerVisibility
2:53 am
Sun, Jul 21
72 °FClear.9 mph37%29.79 "Hg10 mi
1:53 am74 °FClear.12 mph36%29.77 "Hg10 mi
12:53 am77 °FClear.15 mph30%29.74 "Hg10 mi
11:53 pm
Sat, Jul 20
77 °FClear.12 mph26%29.73 "Hg10 mi
10:53 pm73 °FClear.7 mph12%29.75 "Hg10 mi
9:53 pm81 °FClear.5 mph9%29.73 "Hg10 mi
8:53 pm82 °FClear.8 mph11%29.70 "Hg10 mi
7:53 pm92 °FSunny.13 mph10%29.67 "Hg10 mi
6:53 pm97 °FSunny.9 mph7%29.65 "Hg10 mi
5:53 pm97 °FSunny.7 mph8%29.66 "Hg10 mi
4:53 pm98 °FSunny.10 mph11%29.67 "Hg10 mi
3:53 pm99 °FSunny.7 mph13%29.67 "Hg10 mi
2:53 pm96 °FSunny.8 mph15%29.70 "Hg10 mi
1:53 pm96 °FSunny.8 mph16%29.71 "Hg10 mi
12:53 pm94 °FSunny.5 mph18%29.73 "Hg10 mi
11:53 am90 °FSunny.6 mph21%29.76 "Hg10 mi
10:53 am84 °FSunny.9 mph32%29.79 "Hg10 mi
9:53 am79 °FSunny.7 mph38%29.79 "Hg10 mi
8:53 am72 °FSunny.3 mph48%29.80 "Hg10 mi
7:53 am68 °FPartly sunny.12 mph51%29.79 "Hg10 mi
7:42 am72 °FThundershowers. Broken clouds.12 mph46%30.00 "Hg9 mi
7:03 am70 °FThunderstorms. More clouds than sun.10 mph38%30.01 "Hg10 mi
6:53 am71 °FLight rain. Overcast.8 mph30%29.75 "Hg10 mi
5:53 am70 °FPassing clouds.9 mph29%29.73 "Hg10 mi
Weather by CustomWeather, © 2019

See weather overview